GEFSCGP_500_meanwind_252.txt.gz
Wind_Speed
16 13 12 12 11 10 9 7 5 4 5 6 7 8 10 12 13 14 14 14 14 15 15 15 16 15 14 14 14 13 13 13 12 12 11 10 8 7 7 6 6 6 5 5
17 14 13 12 12 13 11 8 5 3 1 3 3 5 7 10 11 12 12 12 12 13 14 15 15 14 14 14 14 13 13 13 12 11 10 9 8 8 7 6 6 6 6 6
18 16 15 14 13 13 11 9 6 3 2 2 2 3 5 7 9 10 10 11 10 11 12 12 13 13 13 12 12 12 12 12 12 11 10 10 9 8 7 7 7 6 6 6
20 19 18 16 14 13 12 12 9 6 4 4 3 3 4 5 7 8 9 9 9 11 11 11 11 11 12 11 11 11 11 11 11 11 11 10 10 9 8 8 8 7 7 7
21 20 19 18 15 13 12 12 11 9 8 7 6 5 4 4 5 6 7 9 8 9 10 10 9 10 10 10 10 11 11 11 11 11 11 11 9 9 9 7 7 7 7 7
22 22 20 18 16 15 14 14 13 13 11 10 7 7 5 4 4 4 5 6 7 8 8 9 8 8 9 10 10 10 11 11 11 11 11 10 10 9 9 8 8 7 7 8
24 23 21 20 20 19 18 17 16 16 15 12 10 10 7 5 4 4 4 4 4 5 7 8 8 8 8 9 9 10 10 10 11 10 10 9 9 9 9 8 8 8 8 9
26 25 22 21 21 19 19 19 18 17 16 14 13 11 9 8 6 5 5 6 5 5 6 6 6 6 8 8 8 9 9 10 10 10 10 9 9 9 9 9 8 8 8 9
28 26 24 23 22 21 20 20 19 18 17 16 15 14 12 10 8 7 8 8 8 6 6 6 6 7 8 8 7 8 8 9 9 9 9 9 9 9 9 8 8 8 9 9
28 27 26 25 24 24 22 21 20 20 19 19 18 16 14 10 9 9 8 8 8 7 7 7 7 7 7 8 8 8 8 8 9 9 9 8 8 8 8 8 8 8 9 9
30 29 28 27 27 26 24 23 22 22 22 21 20 17 14 12 12 11 9 9 10 10 9 8 7 7 7 8 9 8 8 8 9 9 8 8 8 8 8 8 8 9 9 10
31 30 30 30 28 27 26 25 24 23 22 22 22 19 18 16 14 13 12 12 12 12 11 11 10 8 8 9 9 8 8 8 8 8 8 8 8 9 9 9 9 10 10 11
31 32 32 31 31 30 29 28 26 24 23 24 24 21 18 18 17 15 14 14 13 13 13 12 12 11 10 10 9 9 8 8 8 8 9 9 9 9 10 10 10 10 11 12
33 33 33 33 32 32 31 30 29 28 26 26 25 23 21 19 18 17 16 16 15 15 14 14 14 13 12 11 10 10 9 8 8 8 9 9 9 10 10 10 10 11 12 13
34 34 34 33 33 33 33 32 31 30 28 27 26 24 22 20 19 19 19 18 18 17 16 16 15 15 14 13 12 10 9 9 9 9 9 9 10 11 11 11 11 11 12 13
36 36 35 35 34 34 34 33 32 31 30 29 28 25 23 21 21 21 21 20 19 20 19 18 17 17 16 15 14 12 11 11 10 10 10 10 11 12 12 12 13 13 13 13
36 37 37 36 36 35 35 32 32 32 31 30 29 26 24 24 24 23 22 22 21 22 21 21 21 19 18 17 16 14 14 13 12 12 12 12 12 13 14 14 14 14 14 14
37 38 37 37 37 38 35 34 33 33 32 31 30 28 27 26 25 24 23 23 23 24 24 23 23 22 21 20 18 17 16 15 14 14 14 14 14 14 15 15 15 15 16 16
38 38 38 38 39 38 36 35 35 34 34 33 32 30 29 28 27 26 26 25 24 25 25 25 25 24 23 22 21 20 19 18 18 17 16 17 17 16 16 16 16 16 16 17
37 38 39 39 40 39 35 34 35 35 36 35 33 31 30 29 30 28 28 27 26 26 26 26 26 25 25 23 22 21 21 20 20 19 18 19 18 18 18 18 18 18 18 18
38 38 39 39 40 40 36 36 35 36 36 35 34 32 31 30 30 30 30 29 29 28 27 28 27 26 26 24 22 22 22 22 21 21 21 21 20 20 20 19 20 19 19 19
38 38 39 39 40 39 37 37 37 37 36 35 34 33 33 32 32 31 32 32 31 31 30 29 28 28 27 26 24 23 24 24 24 25 24 22 21 22 22 22 21 21 20 20
38 38 38 39 40 38 37 37 38 38 38 37 36 35 34 34 34 33 34 34 34 32 32 31 31 30 29 28 27 26 26 26 26 26 25 24 24 23 23 23 23 23 22 22
38 38 38 39 39 39 39 38 38 38 39 39 39 37 37 37 36 35 35 35 36 34 33 32 32 32 31 30 29 29 29 28 28 27 27 26 26 25 24 24 24 24 24 24
36 36 37 38 38 39 39 39 38 38 39 39 40 40 39 38 38 37 37 36 36 36 35 34 34 33 33 32 32 31 31 31 30 29 29 28 27 26 26 25 25 25 25 25
36 36 37 37 36 37 38 39 40 40 40 40 40 40 40 40 39 39 39 39 38 38 38 37 35 35 34 34 33 33 33 33 33 32 31 30 29 29 27 27 27 26 27 27

GEFSCGP_500_meanwind_258.txt.gz
Wind_Speed
17 15 12 10 9 8 6 6 5 5 6 6 8 9 9 10 11 12 12 13 13 14 13 13 13 13 13 13 13 13 13 12 12 11 11 10 9 8 7 7 6 5 5 5
18 16 14 13 12 10 7 6 5 3 3 3 4 5 7 7 8 10 10 11 11 11 11 11 12 11 11 11 11 12 12 11 11 11 11 10 9 8 8 7 7 6 5 4
19 18 16 15 13 12 10 7 5 4 3 2 2 2 3 5 6 7 8 9 9 9 10 10 10 10 10 10 10 11 11 11 10 10 10 10 9 8 8 8 7 7 6 4
20 20 18 17 15 14 12 10 8 6 5 4 3 1 1 2 4 6 7 8 8 8 8 9 9 9 9 8 9 9 10 10 10 10 9 9 9 8 8 8 7 7 6 6
21 20 19 18 17 16 14 14 12 10 8 6 5 3 2 1 3 4 5 6 7 7 7 7 7 7 7 7 7 8 8 9 9 9 9 8 8 8 8 8 8 7 6 6
23 22 21 20 19 18 17 17 15 14 12 10 7 5 4 3 2 3 3 5 6 5 5 5 5 5 6 6 7 7 7 8 8 8 8 8 7 8 8 8 8 7 7 7
26 25 24 23 22 21 20 19 18 16 14 12 9 8 6 5 4 3 3 4 5 6 6 6 5 5 6 6 7 6 7 8 8 8 8 8 7 8 8 8 8 8 8 7
28 27 25 25 24 23 22 21 20 19 16 14 13 11 9 8 6 4 4 3 3 4 5 6 6 6 6 7 7 6 7 7 7 7 8 7 7 8 8 8 8 8 8 7
29 27 27 26 25 24 23 22 21 21 20 18 17 15 13 10 9 7 6 5 4 3 3 5 6 7 6 6 6 7 7 7 7 7 8 7 7 8 8 9 8 8 7 8
30 29 28 27 27 26 25 24 24 24 23 21 19 17 14 12 11 10 8 7 7 6 4 5 5 6 5 5 5 6 6 6 6 7 7 7 7 8 9 9 9 9 8 9
30 30 29 29 29 28 27 27 27 26 26 24 22 18 15 13 12 11 10 10 9 7 7 7 6 6 6 6 6 6 7 6 6 7 7 8 8 9 9 9 9 9 10 10
32 32 31 31 30 29 29 28 27 27 26 25 23 20 16 14 14 13 13 12 11 10 9 9 8 8 7 7 6 7 8 7 7 7 8 8 9 9 10 10 10 10 10 10
34 34 33 32 33 32 31 29 28 27 26 25 24 21 18 17 16 15 14 14 13 12 11 11 10 10 9 8 8 9 9 8 8 8 9 9 9 10 10 10 10 10 11 11
35 36 35 34 34 33 32 31 29 27 27 26 24 22 20 19 18 17 17 16 15 14 13 13 12 12 11 10 10 11 10 10 10 10 10 10 10 11 11 11 11 11 12 12
36 35 34 34 34 34 34 33 31 30 29 28 26 24 22 20 21 20 19 18 17 16 15 15 14 14 14 13 12 12 13 12 12 12 12 12 12 13 12 12 12 13 13 13
36 35 34 35 34 35 35 35 34 33 32 30 29 26 24 23 22 22 21 20 19 18 18 18 17 16 16 15 14 14 14 15 15 15 15 15 14 15 14 14 14 14 14 14
36 36 36 36 35 36 37 36 36 35 34 32 31 28 26 24 23 23 23 22 20 20 20 20 19 18 18 18 17 16 16 16 17 17 17 17 17 16 16 15 15 15 16 16
36 37 38 38 37 38 36 35 36 35 35 34 32 30 28 25 24 24 23 23 21 21 21 21 20 20 20 20 19 18 18 18 18 19 19 19 20 19 18 17 17 17 17 17
37 37 38 39 39 39 37 36 36 36 35 35 33 32 31 29 27 26 25 24 23 23 23 22 22 22 21 21 20 19 19 19 20 20 20 20 20 20 20 20 19 18 17 18
37 37 38 38 39 39 37 36 35 35 35 34 33 33 32 31 29 27 27 26 25 25 24 23 23 23 23 22 21 21 21 21 21 22 23 22 21 22 22 22 22 20 19 19
37 37 38 38 38 38 36 36 36 36 35 34 33 34 34 33 31 30 29 29 27 27 26 25 25 25 25 24 23 23 24 23 23 24 24 24 23 23 23 23 22 22 22 21
36 37 38 38 38 37 35 36 36 36 35 34 33 33 34 34 33 33 32 32 31 30 29 29 28 27 27 27 27 26 25 24 24 24 24 25 25 24 23 22 23 23 24 23
36 37 37 38 37 36 35 35 35 35 36 35 35 34 34 34 34 34 34 34 34 34 33 32 31 30 30 30 29 29 27 26 26 26 26 26 26 26 25 24 24 25 25 25
36 36 36 37 36 36 36 36 36 36 36 36 36 35 35 35 35 35 35 35 36 36 36 35 35 34 33 33 33 31 30 29 29 29 29 29 29 28 27 26 26 26 27 27
35 35 36 36 35 36 36 36 37 36 36 36 36 36 36 37 37 37 37 37 36 37 37 36 35 35 36 35 35 34 33 32 31 31 31 32 32 31 29 28 28 28 27 28
34 35 35 35 35 36 37 37 38 37 36 36 37 37 36 36 37 37 37 38 38 38 37 38 38 38 38 38 37 36 35 35 34 33 33 33 33 33 32 31 30 29 29 29

GEFSCGP_500_meanwind_264.txt.gz
Wind_Speed
12 11 10 9 8 7 6 5 4 4 5 6 7 8 8 9 9 10 10 10 10 10 10 11 11 11 10 11 10 10 10 10 9 9 8 8 7 7 7 6 6 6 5 5
13 12 12 10 9 8 6 5 3 2 3 4 5 5 5 6 7 8 8 9 8 8 9 10 10 9 9 9 9 9 9 9 9 8 8 8 7 7 6 6 5 5 5 5
15 14 14 12 10 9 7 6 5 3 0 1 2 3 3 4 5 6 7 7 7 7 7 8 8 8 8 8 7 7 7 8 7 7 7 7 7 7 6 6 5 5 5 5
17 17 15 14 12 11 9 8 6 5 2 1 0 1 2 2 3 4 5 5 5 6 6 7 7 7 6 6 6 6 6 6 6 6 6 6 6 6 6 6 5 5 5 5
19 18 17 16 14 13 12 10 8 7 5 3 3 2 2 2 2 3 3 4 5 5 6 6 7 7 6 6 5 6 5 5 5 5 5 5 6 6 6 6 6 5 5 6
20 19 18 17 16 15 13 11 9 7 6 7 6 4 3 3 3 2 3 4 4 5 6 6 6 6 6 6 5 5 5 4 4 4 5 5 6 6 6 6 6 6 6 6
22 21 20 19 18 17 14 12 9 9 9 9 8 6 6 4 3 3 3 3 4 4 5 6 6 6 6 5 5 5 5 4 4 4 4 5 6 6 6 6 6 7 7 7
24 23 22 21 20 18 16 14 13 11 10 9 9 9 8 5 5 4 4 4 4 4 4 5 6 5 5 5 5 5 4 4 4 4 4 5 6 6 6 7 6 7 8 8
25 25 24 23 21 20 18 17 15 14 12 10 11 10 9 8 8 7 6 6 6 6 5 6 6 5 5 4 5 5 5 4 4 5 5 5 6 6 7 7 7 7 8 7
27 26 26 24 22 21 21 19 18 16 15 13 12 11 10 10 10 9 9 8 8 7 7 7 7 6 6 6 6 6 6 5 5 5 6 7 6 6 7 7 7 8 7 7
29 27 27 26 25 24 22 21 20 19 19 15 14 13 13 11 11 11 11 10 10 9 9 8 8 8 7 7 7 7 7 6 6 6 6 8 8 8 8 7 7 8 7 7
30 29 29 28 27 26 25 24 23 22 21 19 17 16 16 13 12 12 12 11 11 11 10 9 9 9 9 9 10 9 8 8 8 7 8 8 8 9 9 9 8 8 8 8
32 31 30 29 29 28 27 26 25 25 24 21 19 18 19 16 15 14 14 14 13 13 12 11 11 11 10 10 11 11 11 9 9 9 10 10 10 10 11 10 9 9 9 9
33 33 32 30 28 29 28 27 27 26 25 24 22 20 20 19 17 17 16 16 15 14 14 13 12 12 12 11 11 12 12 11 11 11 11 11 11 12 13 12 12 11 11 11
33 34 34 32 31 31 30 29 28 28 27 25 24 23 21 21 20 19 18 17 17 16 15 14 15 14 14 14 13 13 13 12 12 12 13 12 13 13 14 13 13 13 12 13
34 34 34 34 33 32 31 31 30 29 28 27 26 25 23 22 21 20 20 20 19 18 17 17 16 16 16 15 15 15 14 14 14 15 15 15 15 15 14 15 14 14 13 14
35 35 34 33 34 33 33 31 31 31 30 29 28 27 25 24 23 22 21 21 21 20 19 19 19 19 18 18 18 18 17 16 16 17 17 17 17 16 16 17 16 16 16 16
35 35 35 33 35 35 33 33 33 32 32 31 31 31 29 27 26 25 24 23 23 22 22 22 22 21 21 21 20 20 20 19 19 19 19 19 19 19 19 19 19 19 18 18
35 35 35 35 35 35 36 34 33 33 33 33 33 33 32 30 29 28 27 26 25 25 24 24 24 24 24 23 23 23 22 21 21 21 21 21 21 21 21 21 21 21 20 19
36 35 35 36 35 34 35 34 33 33 34 34 33 33 33 31 31 30 29 28 28 28 27 27 27 26 26 25 25 24 24 24 23 23 23 23 23 23 23 23 23 22 22 21
35 36 36 36 36 34 35 33 33 34 34 33 33 33 33 33 32 31 30 30 30 30 29 29 29 29 28 27 27 27 27 27 26 26 26 25 25 25 25 25 24 24 23 23
34 34 35 36 35 35 35 35 35 35 34 33 33 33 33 34 33 32 31 31 31 31 31 31 31 31 31 31 30 30 30 29 29 29 28 28 28 28 27 27 27 26 25 24
34 34 34 35 36 35 35 35 35 35 34 33 33 34 34 34 33 32 32 32 33 33 33 33 33 32 33 33 33 33 33 32 32 31 31 31 31 30 29 28 28 27 27 26
34 34 35 35 35 36 36 35 35 34 34 33 33 34 34 34 34 34 34 34 34 35 35 35 34 33 34 34 34 34 34 33 33 33 33 33 32 31 30 29 29 29 29 29
34 35 35 35 35 35 36 36 36 35 35 35 34 34 35 35 35 35 35 35 35 35 36 36 35 35 35 35 35 35 35 34 34 34 34 34 33 32 32 31 30 30 30 30
33 33 35 36 35 36 36 36 36 36 35 35 35 35 36 36 36 36 36 36 36 36 37 36 36 36 37 36 36 36 36 36 35 35 36 35 35 34 33 33 32 32 32 31

GEFSCGP_500_meanwind_270.txt.gz
Wind_Speed
9 8 7 6 6 7 4 2 1 1 3 4 4 6 8 10 11 12 12 11 11 11 12 11 12 12 11 11 11 11 10 10 10 10 9 9 8 8 7 7 7 7 6 6
8 7 7 6 6 6 5 4 2 1 2 3 4 5 7 8 9 9 10 10 10 11 10 10 10 11 11 10 10 10 10 9 9 9 9 9 8 8 7 7 7 6 6 6
11 9 9 8 8 8 6 5 5 4 1 1 3 5 6 7 8 8 8 9 9 9 9 10 10 10 10 10 9 9 9 9 9 9 9 9 9 8 8 8 7 7 7 6
14 13 12 10 8 7 7 7 7 5 3 2 4 6 8 7 7 7 8 8 8 9 9 9 9 9 9 9 9 8 8 8 8 9 9 9 9 9 9 8 8 8 8 7
15 15 13 12 11 10 9 9 8 7 4 3 5 7 8 8 7 8 8 8 7 8 8 8 9 9 8 9 8 8 8 8 8 9 9 9 9 9 9 8 8 8 8 8
16 15 14 14 14 13 11 8 6 6 5 6 6 6 8 8 8 8 6 7 7 7 7 8 8 8 8 9 9 9 8 8 8 8 9 9 9 9 9 9 9 8 8 9
17 16 15 15 14 13 12 10 8 7 7 7 7 8 10 9 9 9 7 7 8 7 7 8 8 7 7 8 9 9 9 8 8 8 8 9 9 10 9 10 9 9 9 9
16 16 16 16 16 15 14 12 9 8 7 8 9 10 12 11 9 10 9 8 8 8 8 8 8 8 8 8 8 9 9 8 8 8 8 9 10 10 10 10 10 10 10 10
18 17 17 18 17 16 14 13 10 10 9 9 10 10 13 14 12 10 10 10 10 9 10 10 9 8 8 8 8 9 9 8 8 8 9 9 10 10 11 11 11 11 11 11
21 21 19 18 18 17 16 15 13 13 13 11 12 12 13 15 14 13 11 10 10 9 10 10 10 10 10 9 9 9 9 9 9 9 9 9 10 11 11 12 12 12 12 12
22 21 20 19 20 17 17 17 17 16 15 13 13 14 14 14 14 15 13 12 12 11 11 11 11 11 11 10 11 10 10 10 10 10 10 11 11 12 11 12 13 13 13 13
24 23 22 20 20 20 19 19 18 18 17 16 14 15 16 15 15 15 15 14 14 13 13 13 12 12 12 12 11 12 11 12 12 12 12 12 12 12 13 13 13 13 13 13
25 25 24 22 20 21 21 21 21 19 19 19 16 16 17 15 15 17 17 17 16 15 14 14 14 13 14 14 13 13 13 13 13 14 13 13 13 13 13 13 13 13 13 14
29 29 28 26 23 22 21 21 21 21 21 20 18 18 21 19 18 20 19 18 17 15 15 15 15 15 15 15 15 15 15 15 14 15 14 14 14 14 14 14 14 14 14 14
33 32 30 28 26 25 24 24 23 23 23 22 19 21 23 22 21 22 21 20 19 17 17 17 16 17 16 16 16 16 16 15 16 16 16 15 15 15 15 15 14 15 15 16
34 33 32 30 28 27 28 26 25 25 25 23 22 23 24 25 23 21 22 21 21 21 20 20 19 19 19 18 17 17 17 17 17 17 16 16 16 16 16 16 16 17 17 17
35 35 34 32 30 30 30 27 25 25 26 25 24 25 24 25 25 26 26 25 24 23 23 23 22 21 21 20 19 18 18 18 18 18 17 17 18 18 18 18 18 19 19 19
34 35 35 34 31 33 30 27 27 27 27 27 26 27 29 29 28 30 29 27 26 26 25 26 25 23 23 22 21 21 20 20 20 20 19 19 19 20 20 20 21 21 21 21
35 35 35 34 33 32 30 29 29 30 30 29 29 29 30 30 30 29 29 29 28 28 28 28 27 26 25 24 24 23 22 22 22 22 22 22 22 22 22 22 23 23 23 23
35 36 35 35 34 32 30 30 30 30 32 31 30 31 31 31 32 32 31 31 30 30 30 29 29 28 27 27 26 26 25 25 24 24 25 25 24 25 25 25 25 25 25 25
35 35 36 36 35 33 30 30 30 32 33 32 33 33 34 34 35 35 32 33 33 32 32 31 31 30 29 29 29 28 28 27 27 28 28 28 27 27 28 28 28 28 28 28
32 34 35 36 35 33 32 31 33 34 34 34 34 34 35 35 36 35 34 34 35 34 34 33 32 32 31 32 32 31 30 30 30 30 30 30 30 30 30 30 30 30 30 30
31 31 31 34 36 36 35 35 36 36 36 35 35 36 35 34 35 36 36 35 36 36 35 35 34 34 33 33 33 33 32 32 33 33 33 32 32 32 33 33 32 32 32 32
32 33 35 35 36 38 38 38 38 37 37 37 37 36 36 36 36 37 36 36 36 38 38 37 36 36 35 34 35 35 34 34 35 35 34 34 34 35 35 35 34 34 34 34
33 34 36 37 38 38 38 38 37 38 38 38 38 38 37 37 37 38 38 38 38 39 39 39 38 37 37 37 36 36 35 36 36 36 36 36 36 36 36 36 35 36 36 36
34 34 37 37 36 38 38 39 40 39 38 38 38 38 38 38 39 39 39 38 39 40 40 40 40 39 38 38 38 38 37 37 37 37 37 37 37 37 37 37 36 37 36 36